Tracking 35030 objects as of 11-Aug-2026
HD Live streaming from Space Station
objects crossing your sky now

SL-12 DEB


SL-12 DEB is no longer on orbit


NORAD ID: 29435
Int'l Code: 1989-039CK
Launch date: May 31, 1989
Source: Commonwealth of Independent States (former USSR) (CIS)
Launch site: TYURATAM MISSILE AND SPACE COMPLEX (TTMTR)
Decay date: 2006-11-14

Note: This is SATELLITE DEBRIS
Your satellite tracking list
Your tracking list is empty




NASA's NSSDC Master Catalog

Two Line Element Set (TLE):
1 29435U 89039CK  06318.32568653  .00041784  16923-5  10000-3 0  9992
2 29435 066.0962 234.2247 2160192 058.4993 356.2230 11.36331440  5560
Source of the keplerian elements: AFSPC